Location: Radford
(37.1320°N, 80.5770°W)
Time: 15:33:52
(UTC-05:00)

Daily predictions for brighter satellites

Satellite Brightness Start Highest point End
(mag) Time Altitude Azimuth Time Altitude Azimuth Time Altitude Azimuth
USA 234 4.3 17:28:32 10° ENE 17:33:54 27° SE 17:39:14 10° S
YAOGAN 1 3.6 17:31:38 10° SE 17:35:10 25° ENE 17:38:42 10° NNE
SL-27 R/B 3.0 17:33:04 10° N 17:36:09 34° ENE 17:39:15 10° SE
SMAP 3.2 17:33:15 10° SSE 17:37:46 53° ENE 17:42:17 10° N
COSMO-SKYMED 1 3.8 17:34:49 10° NE 17:38:10 22° E 17:41:31 10° SE
CZ-4C R/B 3.9 17:33:36 10° N 17:39:05 23° NE 17:45:01 10° E
Meteor 1-28 Rocket 3.5 17:36:12 10° NNE 17:39:47 44° E 17:43:21 10° S
USA 161 3.9 17:38:34 10° NW 17:39:52 15° WNW 17:41:13 10° WSW
Meteor 1-26 Rocket 4.4 17:35:29 10° SSW 17:41:03 77° W 17:46:36 10° N
Cosmos 1503 Rocket 4.3 17:36:25 10° S 17:41:28 48° ESE 17:46:29 10° NNE
Ariane Rocket 3.0 17:37:22 10° SSE 17:42:24 69° ENE 17:47:28 10° N
Tiangong 1 2.6 17:41:32 10° SSW 17:43:26 18° SE 17:45:20 10° E
Cosmos 1606 3.0 17:41:23 10° SSE 17:44:59 44° E 17:48:35 10° NNE
Cosmos 841 Rocket 3.5 17:42:25 10° NNW 17:47:43 75° ENE 17:52:56 10° SSE
Landsat 4 4.0 17:49:05 10° NNE 17:52:45 45° E 17:56:24 10° S
CSL-04 Rocket 3.8 17:49:53 10° S 17:55:10 80° WSW 18:00:33 10° NNW
Cosmos 1703 Rocket 3.5 17:51:31 10° S 17:55:57 76° E 18:00:25 10° N
Cosmos 1484 Rocket 2.8 17:53:21 10° S 17:57:12 86° WSW 18:01:09 10° NNW
Cosmos 2221 Rocket 3.7 17:55:44 10° SSE 17:59:59 50° E 18:04:15 10° NNE
EO 1 Del DPAF 3.9 17:58:00 10° NNE 18:01:31 34° E 18:05:00 10° SSE
Cosmos 2034 Rocket 4.5 17:56:19 10° SSE 18:02:07 39° E 18:07:56 10° NNE
Cosmos 2082 Rocket 2.3 18:00:09 10° NNW 18:05:43 54° ENE 18:11:13 10° SE
ERS-2 2.5 18:03:08 10° SE 18:06:34 39° ENE 18:10:01 10° N
OAO 3 Rocket 3.9 18:02:38 10° SW 18:07:17 44° SSE 18:10:55 16° E
CZ-4 R/B 1.2 18:04:50 10° SSE 18:08:42 89° NE 18:12:33 10° NNW
Meteor 2-6 Rocket 4.1 18:06:49 10° S 18:12:11 67° E 18:17:43 10° NNE
Meteor 1-20 Rocket 4.4 18:11:49 10° NNW 18:17:19 72° W 18:22:45 10° S
Cosmos 1602 4.2 18:13:50 10° N 18:17:26 37° E 18:21:01 10° SSE
Okean 2 Rocket 3.3 18:13:50 10° N 18:18:14 49° E 18:22:36 10° SSE
USA 229 DEB 4.4 18:13:14 10° S 18:19:05 33° ESE 18:22:43 20° ENE
USA 229 4.4 18:13:22 10° S 18:19:11 32° ESE 18:22:46 20° ENE
Cosmos 1633 2.7 18:17:08 10° N 18:20:49 77° W 18:24:27 10° S
Cosmos 1354 Rocket 4.3 18:16:03 10° SSW 18:21:18 71° WNW 18:26:35 10° NNE
CZ-4 R/B 4.3 18:17:10 10° SSE 18:21:19 78° ENE 18:25:29 10° N
Cosmos 405 Rocket 2.6 18:17:56 10° S 18:21:41 63° E 18:25:14 11° NNE
SKYMED 2 3.5 18:22:01 10° NNE 18:26:22 79° E 18:30:42 10° S
Cosmos 1782 3.8 18:23:30 10° SSW 18:27:23 49° W 18:31:18 10° N
Cosmos 1464 Rocket 3.9 18:22:40 10° S 18:28:47 89° E 18:34:59 10° N
BREEZE-M R/B 2.6 18:28:14 10° NW 18:31:09 87° SW 18:35:53 12° SE
SPOT 3 Rocket 3.5 18:26:39 10° SSE 18:31:45 59° ENE 18:36:53 10° N
BREEZE-M DEB (TANK) 3.9 18:30:59 10° NNW 18:32:12 20° N 18:32:12 20° N
FENGYUN 3A 3.7 18:31:52 10° SSE 18:37:09 57° ENE 18:42:27 10° N
Cosmos 44 Rocket 3.2 18:32:26 10° NNW 18:37:18 64° ENE 18:42:09 11° SE
Okean 1-7 4.1 18:35:56 10° SSW 18:40:09 47° W 18:44:25 10° N
GPS 2-05 Rocket1 2.7 18:38:16 10° WSW 18:41:24 59° S 18:41:40 56° SE
Cosmos 292 Rocket 3.6 18:36:38 10° NNW 18:41:24 76° ENE 18:46:09 10° SSE
ISS -1.8 18:41:12 10° S 18:42:42 18° SSE 18:42:42 18° SSE
Meteor 2-20 Rocket 4.5 18:38:48 10° N 18:44:46 54° E 18:50:40 10° SSE
Meteor 1-5 Rocket 4.4 18:40:06 10° N 18:45:04 39° ENE 18:49:59 10° SE
Meteor 1-27 Rocket 3.8 18:41:46 10° S 18:47:40 86° E 18:53:39 10° N
Cosmos 44 3.4 18:52:00 10° NNW 18:56:46 76° WSW 19:01:46 10° SSE
Cosmos 1833 Rocket 3.4 18:51:40 10° NNW 18:57:07 53° WSW 19:02:34 10° S
Cosmos 2369 Rocket 2.8 18:53:11 10° S 18:57:35 36° ESE 18:57:35 36° ESE
NOAA 12 4.2 18:58:08 10° S 19:03:27 79° WSW 19:08:47 10° NNW
Thor Agena Rocket 3.5 19:04:54 58° E 19:05:03 58° ESE 19:10:07 10° S
ALOS 2.6 19:03:58 10° S 19:08:35 64° W 19:13:14 10° NNW
Cosmos 405 4.3 19:05:54 10° NNW 19:09:19 41° W 19:12:41 10° SSW
COSMO-SKYMED 1 4.5 19:10:33 10° NNW 19:14:18 29° WNW 19:18:00 10° SW
USA 234 3.3 19:14:25 37° NNE 19:17:13 74° NW 19:23:43 10° SW
Cosmos 968 Rocket 4.2 19:12:43 10° SW 19:17:45 52° WNW 19:20:41 24° N
Tiangong 1 4.1 19:15:28 10° W 19:15:53 13° W 19:15:53 13° W
Cosmos 1943 Rocket 4.0 19:17:41 10° S 19:19:04 17° SSE 19:19:04 17° SSE
CZ-4C R/B 2.9 19:21:08 10° NNW 19:28:32 90° WSW 19:32:49 31° SSE
Cosmos 1634 Rocket 3.9 19:35:53 10° S 19:42:03 83° W 19:42:05 83° WNW
NOSS 3-1 (C) 4.4 19:41:06 10° SSW 19:43:57 32° S 19:43:57 32° S
USA 229 DEB 4.4 20:03:21 10° WSW 20:09:47 46° NW 20:10:13 45° NW
USA 229 4.4 20:03:26 10° WSW 20:09:53 46° NW 20:10:16 46° NW
